This is the latest recevied weather packets stored in our database for station/object OK1VOF-13. If no packets are shown the sender has not sent any weather packets the latest 10 day(s).
| Time | Temp. | Humidity | Pressure | Rain* | Wind** | Luminosity | Snow |
|---|---|---|---|---|---|---|---|
| 1778250090 | 22.22° C | 37% | 1019.6 hPa | 0 mm | - | - | - |
| 1778249791 | 22.22° C | 36% | 1019.8 hPa | 0 mm | - | - | - |
| 1778249194 | 22.22° C | 38% | 1019.8 hPa | 0 mm | - | - | - |
| 1778248895 | 21.67° C | 40% | 1019.7 hPa | 0 mm | - | - | - |
| 1778248596 | 20.56° C | 42% | 1019.8 hPa | 0 mm | - | - | - |
| 1778248297 | 19.44° C | 43% | 1019.8 hPa | 0 mm | - | - | - |
| 1778247999 | 18.89° C | 45% | 1019.8 hPa | 0 mm | - | - | - |
| 1778247401 | 18.89° C | 45% | 1019.8 hPa | 0 mm | - | - | - |
| 1778247102 | 18.89° C | 45% | 1019.8 hPa | 0 mm | - | - | - |
| 1778246803 | 18.33° C | 46% | 1019.8 hPa | 0 mm | - | - | - |
| 1778246505 | 18.33° C | 46% | 1019.9 hPa | 0 mm | - | - | - |
| 1778246206 | 18.33° C | 46% | 1019.9 hPa | 0 mm | - | - | - |
| 1778245907 | 18.33° C | 47% | 1019.9 hPa | 0 mm | - | - | - |
| 1778245309 | 17.78° C | 49% | 1019.8 hPa | 0 mm | - | - | - |
| 1778245011 | 17.22° C | 50% | 1019.8 hPa | 0 mm | - | - | - |
| 1778244712 | 16.67° C | 50% | 1019.8 hPa | 0 mm | - | - | - |
| 1778244413 | 16.67° C | 51% | 1019.8 hPa | 0 mm | - | - | - |
| 1778244115 | 16.67° C | 51% | 1019.9 hPa | 0 mm | - | - | - |
| 1778243812 | 16.67° C | 51% | 1019.9 hPa | 228.6 mm | - | - | - |
| 1778243510 | 16.67° C | 52% | 1019.9 hPa | 26.42 mm | - | - | - |
| 1778243208 | 16.67° C | 51% | 1020 hPa | 26.42 mm | - | - | - |
| 1778242906 | 16.11° C | 51% | 1019.9 hPa | 26.42 mm | - | - | - |
| 1778242000 | 16.67° C | 51% | 1019.8 hPa | 26.42 mm | - | - | - |
| 1778241698 | 16.67° C | 51% | 1019.8 hPa | 26.42 mm | - | - | - |
| 1778241397 | 16.67° C | 52% | 1019.8 hPa | 26.42 mm | - | - | - |
* Rain latest hour (hover to see other rain measurements)
** Current wind speed in m/s (hover to see current wind gust speed)